COSMOS 2535 DEB, 44633

Orbit data source: Space-Track

COSMOS 2535 DEB, 44633 is space debris in SSO originally from a launch on Wed, 10 Jul 2019 UTC launched from the Plesetsk Missile And Space Complex (PKMTR). Debris objects in space refer to the collection of defunct objects orbiting the Earth. Examples of debris include non-operational satellites, rocket bodies, and fragments generated from explosions, collisions, or faulty payload assembly.

Loading next visibility...
Identifier
44633, 2019-039K
Orbit
SSO
Country
Flag of CISCIS
Related business
Manufacturer
Unknown
Mission
Spacecraft
Bus & Motor
Unknown
Mass
Unknown
Launch date (UTC)
2019-07-10 (7 years ago)
Launch vehicle
Unknown
Launch site
Plesetsk Missile And Space Complex (PKMTR)
Object type
Payload
Rocket body
Debris
Shape & HBR
Unknown shape, 0.1 m
Radar Cross Section
Small (<0.1 m²)

Expand to show TLE details & history
Last TLE update: 2 days ago

TLE from 2 days ago
0 COSMOS 2535 DEB
1 44633U 19039K   26171.20692041  .00001284  00000-0  16325-3 0  9998
2 44633  97.7270 159.5398 0050006  37.4525 323.0156 14.82442380361131
Epoch: 2026-06-20T04:57Z
TLE epoch observation values (Epoch: 2026-06-20T04:57:57.923Z)
Latitude
-0.00004°
Longitude
176.6236°
Altitude
596.753 km
Speed
7.576 km/s
True Right ascension
10h 38m 09s
True Declination
0° 00' 00"
Sunlit
Object was in daylight at epoch
Visualization orbit readout
Latitude
Unknown
Longitude
Unknown
Altitude
Unknown
Speed
Unknown
Apparent Right ascension
Unknown
Apparent Declination
Unknown
Sunlit
N/A
Visualization observer readout
Local Sidereal Time
21:37:37
Azimuth
Unknown
Elevation
Unknown
Doppler factor
Unknown
Orbital elements
Apogee altitude
653.643 km
Perigee altitude
583.667 km
Semi-major axis
6,996.792 km
Eccentricity
0.005
Inclination
97.727°
RAAN
159.5398°
Arg. of periapsis
37.4525°
True anomaly
322.66914°
Mean anomaly
323.0156°
Eccentric anomaly
322.84254°
Mean motion
3.70847 °/min
Orbital period
97.08 mins
BSTAR
0.00016325
Loading maneuver chart data...
Computing Atmospheric mass density...

Documentation

Showing up to 5 results
|